Overview Statistics Trail Chart Weather Telemetry Raw packets
 

This is the latest recevied weather packets stored in our database for station/object W5GMO. If no packets are shown the sender has not sent any weather packets the latest 10 day(s).

<< 21 22 23 24 25 26 27 >>
Time Temp. Humidity Pressure Rain* Wind** Luminosity Snow
1788495231 21.67° C 1% 1016.3 hPa 14.99 mm - 0 W/m² -
1788494928 21.11° C 1% 1016.7 hPa 22.86 mm - 0 W/m² -
1788494622 21.11° C 1% 1016.8 hPa 25.91 mm - 0 W/m² -
1788494318 21.11° C 1% 1017.8 hPa 13.72 mm - 0 W/m² -
1788494014 22.22° C 1% 1018.7 hPa 7.87 mm - 0 W/m² -
1788493713 28.89° C 1% 1017.5 hPa 4.32 mm - 0 W/m² -
1788493408 28.89° C 1% 1015.1 hPa 0 mm - 0 W/m² -
1788493104 28.89° C 1% 1014.2 hPa 0 mm - 0 W/m² -
1788492800 29.44° C 1% 1013.8 hPa 0 mm - 0 W/m² -
1788492497 29.44° C 1% 1014.2 hPa 0 mm - 0 W/m² -
1788492196 30° C 1% 1014.1 hPa 0 mm - 0 W/m² -
1788491890 30° C 1% 1013.7 hPa 0 mm - 0 W/m² -
1788491586 30° C 1% 1013.5 hPa 0 mm - 0 W/m² -
1788491282 30° C 1% 1013.5 hPa 0 mm - 0 W/m² -
1788490977 30° C 1% 1013.5 hPa 0 mm - 0 W/m² -
1788490673 30° C 1% 1013.6 hPa 0 mm - 0 W/m² -
1788490368 30° C 1% 1013.7 hPa 0 mm - 0 W/m² -
1788490063 30° C 1% 1013.9 hPa 0 mm - 0 W/m² -
1788489759 30° C 1% 1013.9 hPa 0 mm - 0 W/m² -
1788489455 30° C 1% 1014.1 hPa 0 mm - 0 W/m² -
1788489151 30° C 1% 1014 hPa 0 mm - 0 W/m² -
1788488845 30° C 1% 1014.2 hPa 0 mm - 0 W/m² -
1788488542 30° C 1% 1014.1 hPa 0 mm - 0 W/m² -
1788488237 30° C 1% 1013.8 hPa 0 mm - 0 W/m² -
1788487932 30° C 1% 1013.8 hPa 0 mm - 0 W/m² -

* Rain latest hour (hover to see other rain measurements)
** Current wind speed in m/s (hover to see current wind gust speed)